ADO33 RJCH-RJCO

Flight info

Callsign ADO33
Flight time 0h 28m
Altitude 15000
Route HWE6R HWE V2 MOIWA MOIWAN
Aircraft B737/M-SDE2E3FGHIRWXY/LB1

Departure

Time 2026-04-26 04:06
Airport Hakodate Airport (RJCH)

Arrival

Time 2026-04-26 04:34
Airport Sapporo Okadama Airport (RJCO)
Time Latitude Longitude Altitude Speed Heading
2026-04-26 03:54 41.77491 140.81529 117 ft 0 kts 18°
2026-04-26 03:56 41.77488 140.81528 117 ft 2 kts 18°
2026-04-26 03:56 41.77470 140.81521 115 ft 3 kts 15°
2026-04-26 03:57 41.77450 140.81514 117 ft 3 kts 13°
2026-04-26 03:57 41.77431 140.81508 116 ft 3 kts 12°
2026-04-26 03:57 41.77411 140.81502 116 ft 3 kts 11°
2026-04-26 03:57 41.77391 140.81496 116 ft 3 kts 16°
2026-04-26 03:58 41.77373 140.81487 119 ft 3 kts 43°
2026-04-26 03:58 41.77367 140.81475 119 ft 1 kts 106°
2026-04-26 03:58 41.77371 140.81457 116 ft 3 kts 107°
2026-04-26 03:58 41.77377 140.81431 115 ft 3 kts 107°
2026-04-26 03:59 41.77381 140.81414 113 ft 1 kts 107°
2026-04-26 03:59 41.77381 140.81413 113 ft 2 kts 107°
2026-04-26 04:01 41.77380 140.81417 113 ft 2 kts 107°
2026-04-26 04:01 41.77369 140.81458 115 ft 7 kts 109°
2026-04-26 04:01 41.77347 140.81544 119 ft 13 kts 109°
2026-04-26 04:02 41.77312 140.81690 122 ft 20 kts 107°
2026-04-26 04:02 41.77262 140.81898 122 ft 27 kts 108°
2026-04-26 04:02 41.77201 140.82147 124 ft 28 kts 106°
2026-04-26 04:02 41.77143 140.82387 130 ft 26 kts 108°
2026-04-26 04:03 41.77089 140.82610 135 ft 24 kts 108°
2026-04-26 04:03 41.77039 140.82817 137 ft 23 kts 108°
2026-04-26 04:03 41.76991 140.83016 142 ft 22 kts 108°
2026-04-26 04:03 41.76944 140.83208 143 ft 22 kts 108°
2026-04-26 04:04 41.76898 140.83396 145 ft 21 kts 108°
2026-04-26 04:04 41.76854 140.83579 147 ft 20 kts 108°
2026-04-26 04:04 41.76811 140.83756 155 ft 20 kts 109°
2026-04-26 04:04 41.76782 140.83870 158 ft 19 kts 109°
2026-04-26 04:05 41.76683 140.83946 161 ft 13 kts 197°
2026-04-26 04:05 41.76625 140.83921 160 ft 14 kts 197°
2026-04-26 04:05 41.76606 140.83898 159 ft 3 kts 282°
2026-04-26 04:05 41.76613 140.83864 157 ft 8 kts 284°
2026-04-26 04:06 41.76617 140.83841 156 ft 3 kts 285°
2026-04-26 04:06 41.76722 140.83418 145 ft 92 kts 288°
2026-04-26 04:06 41.77002 140.82289 212 ft 155 kts 289°
2026-04-26 04:06 41.77336 140.80912 1081 ft 150 kts 278°
2026-04-26 04:07 41.77416 140.79524 2006 ft 153 kts 264°
2026-04-26 04:07 41.77134 140.78105 2699 ft 166 kts 242°
2026-04-26 04:07 41.76415 140.76937 3757 ft 160 kts 222°
2026-04-26 04:07 41.75446 140.76250 4834 ft 162 kts 199°
2026-04-26 04:08 41.74235 140.76280 5432 ft 196 kts 173°
2026-04-26 04:08 41.72909 140.77247 5715 ft 239 kts 147°
2026-04-26 04:08 41.71537 140.78762 5991 ft 269 kts 146°
2026-04-26 04:08 41.70062 140.80419 6604 ft 282 kts 145°
2026-04-26 04:09 41.68411 140.81739 7480 ft 277 kts 167°
2026-04-26 04:09 41.66551 140.82090 8525 ft 268 kts 191°
2026-04-26 04:09 41.64822 140.81298 9511 ft 262 kts 217°
2026-04-26 04:09 41.63521 140.79625 10446 ft 260 kts 238°
2026-04-26 04:10 41.62799 140.77422 11369 ft 262 kts 257°
2026-04-26 04:10 41.62759 140.74976 12299 ft 269 kts 278°
2026-04-26 04:10 41.63484 140.72636 13224 ft 281 kts 300°
2026-04-26 04:10 41.64960 140.70827 14101 ft 299 kts 324°
2026-04-26 04:11 41.66985 140.69933 14961 ft 317 kts 347°
2026-04-26 04:11 41.69251 140.70140 15655 ft 342 kts 10°
2026-04-26 04:11 41.71458 140.71620 15849 ft 380 kts 37°
2026-04-26 04:11 41.73213 140.74420 16070 ft 408 kts 57°
2026-04-26 04:12 41.74722 140.77781 16262 ft 431 kts 58°
2026-04-26 04:12 41.76476 140.81145 16709 ft 441 kts 44°
2026-04-26 04:12 41.78893 140.83535 17479 ft 438 kts 24°
2026-04-26 04:12 41.81736 140.84856 17957 ft 430 kts
2026-04-26 04:13 41.84689 140.85725 18032 ft 436 kts
2026-04-26 04:13 41.87633 140.86605 18050 ft 433 kts
2026-04-26 04:13 41.90569 140.87541 18056 ft 434 kts
2026-04-26 04:13 41.93503 140.88511 18041 ft 434 kts 10°
2026-04-26 04:14 41.96434 140.89487 18051 ft 433 kts 10°
2026-04-26 04:14 41.99358 140.90459 18050 ft 433 kts 10°
2026-04-26 04:14 42.02288 140.91429 18066 ft 433 kts 10°
2026-04-26 04:14 42.05222 140.92410 18057 ft 434 kts 10°
2026-04-26 04:15 42.08161 140.93402 18059 ft 434 kts 10°
2026-04-26 04:15 42.11094 140.94396 18060 ft 434 kts 10°
2026-04-26 04:15 42.13985 140.95374 18062 ft 434 kts 10°
2026-04-26 04:15 42.16915 140.96366 18059 ft 434 kts 10°
2026-04-26 04:16 42.19845 140.97364 18061 ft 434 kts 10°
2026-04-26 04:16 42.22770 140.98379 18058 ft 434 kts 11°
2026-04-26 04:16 42.25700 140.99403 18058 ft 434 kts 11°
2026-04-26 04:16 42.28627 141.00426 18055 ft 434 kts 11°
2026-04-26 04:17 42.31553 141.01446 18054 ft 434 kts 11°
2026-04-26 04:17 42.34478 141.02464 18055 ft 434 kts 10°
2026-04-26 04:17 42.37423 141.03435 18067 ft 434 kts
2026-04-26 04:17 42.40362 141.04366 18056 ft 427 kts
2026-04-26 04:18 42.43190 141.05258 18057 ft 420 kts
2026-04-26 04:18 42.46040 141.06165 18039 ft 409 kts
2026-04-26 04:18 42.48731 141.07030 18044 ft 399 kts
2026-04-26 04:18 42.51418 141.07909 18045 ft 397 kts 10°
2026-04-26 04:19 42.54093 141.08855 18010 ft 397 kts 11°
2026-04-26 04:19 42.56765 141.09812 17690 ft 399 kts 10°
2026-04-26 04:19 42.59452 141.10723 17217 ft 397 kts
2026-04-26 04:19 42.62115 141.11603 16641 ft 392 kts
2026-04-26 04:20 42.64757 141.12473 16042 ft 388 kts
2026-04-26 04:20 42.67370 141.13337 15436 ft 384 kts
2026-04-26 04:20 42.69958 141.14198 14853 ft 381 kts
2026-04-26 04:20 42.72521 141.15054 14268 ft 378 kts
2026-04-26 04:21 42.75066 141.15906 13659 ft 375 kts
2026-04-26 04:21 42.77590 141.16752 13005 ft 372 kts
2026-04-26 04:21 42.80095 141.17592 12387 ft 368 kts
2026-04-26 04:21 42.82569 141.18423 11794 ft 365 kts
2026-04-26 04:22 42.85026 141.19248 11212 ft 362 kts
2026-04-26 04:22 42.87458 141.20066 10625 ft 360 kts
2026-04-26 04:22 42.89854 141.20875 10428 ft 346 kts
2026-04-26 04:22 42.92124 141.21560 10258 ft 329 kts 359°
2026-04-26 04:23 42.94305 141.21377 10122 ft 302 kts 339°
2026-04-26 04:23 42.96225 141.20483 10015 ft 283 kts 332°
2026-04-26 04:23 42.97999 141.19513 9872 ft 270 kts 330°
2026-04-26 04:23 42.99753 141.18521 9404 ft 273 kts 330°
2026-04-26 04:24 43.01510 141.17532 9008 ft 273 kts 330°
2026-04-26 04:24 43.03268 141.16553 8618 ft 273 kts 330°
2026-04-26 04:24 43.05037 141.15575 8260 ft 274 kts 330°
2026-04-26 04:24 43.06806 141.14602 7881 ft 275 kts 330°
2026-04-26 04:25 43.08581 141.13629 7513 ft 275 kts 330°
2026-04-26 04:25 43.10361 141.12656 7141 ft 276 kts 330°
2026-04-26 04:25 43.12145 141.11686 6731 ft 274 kts 330°
2026-04-26 04:25 43.13906 141.10725 6404 ft 270 kts 330°
2026-04-26 04:26 43.15644 141.09771 6019 ft 270 kts 330°
2026-04-26 04:26 43.17358 141.08832 5719 ft 267 kts 330°
2026-04-26 04:26 43.19069 141.07896 5441 ft 262 kts 330°
2026-04-26 04:26 43.20758 141.07018 5190 ft 255 kts 338°
2026-04-26 04:27 43.22523 141.07009 5012 ft 252 kts
2026-04-26 04:27 43.24027 141.08041 4874 ft 241 kts 35°
2026-04-26 04:27 43.25222 141.09531 4750 ft 224 kts 42°
2026-04-26 04:27 43.26307 141.11021 4467 ft 218 kts 43°
2026-04-26 04:28 43.27336 141.12519 4097 ft 215 kts 56°
2026-04-26 04:28 43.27799 141.14389 3780 ft 200 kts 97°
2026-04-26 04:28 43.27493 141.16152 3690 ft 184 kts 129°
2026-04-26 04:28 43.26718 141.17434 3624 ft 171 kts 141°
2026-04-26 04:29 43.25920 141.18617 3549 ft 167 kts 142°
2026-04-26 04:29 43.25113 141.19770 3411 ft 163 kts 143°
2026-04-26 04:29 43.24344 141.20847 3188 ft 152 kts 144°
2026-04-26 04:29 43.23638 141.21824 3060 ft 140 kts 144°
2026-04-26 04:30 43.22965 141.22749 2986 ft 136 kts 144°
2026-04-26 04:30 43.22288 141.23672 2813 ft 140 kts 143°
2026-04-26 04:30 43.21605 141.24607 2632 ft 137 kts 143°
2026-04-26 04:30 43.20924 141.25539 2465 ft 139 kts 143°
2026-04-26 04:31 43.20252 141.26462 2258 ft 134 kts 142°
2026-04-26 04:31 43.19589 141.27371 2097 ft 135 kts 143°
2026-04-26 04:31 43.18922 141.28284 1923 ft 137 kts 142°
2026-04-26 04:31 43.18259 141.29196 1723 ft 132 kts 142°
2026-04-26 04:32 43.17626 141.30063 1564 ft 129 kts 141°
2026-04-26 04:32 43.16993 141.30923 1410 ft 128 kts 141°
2026-04-26 04:32 43.16343 141.31820 1216 ft 132 kts 140°
2026-04-26 04:32 43.15705 141.32697 1032 ft 127 kts 141°
2026-04-26 04:33 43.15101 141.33523 853 ft 119 kts 138°
2026-04-26 04:33 43.14520 141.34319 728 ft 120 kts 137°
2026-04-26 04:33 43.13934 141.35124 570 ft 119 kts 136°
2026-04-26 04:33 43.13363 141.35910 396 ft 118 kts 135°
2026-04-26 04:34 43.12776 141.36705 219 ft 118 kts 135°
2026-04-26 04:34 43.12210 141.37480 64 ft 112 kts 135°
2026-04-26 04:34 43.11718 141.38156 31 ft 84 kts 135°
2026-04-26 04:34 43.11455 141.38515 32 ft 39 kts 135°
2026-04-26 04:35 43.11326 141.38656 33 ft 12 kts 180°
2026-04-26 04:35 43.11260 141.38583 31 ft 12 kts 227°
2026-04-26 04:35 43.11201 141.38501 30 ft 12 kts 225°
2026-04-26 04:35 43.11142 141.38421 30 ft 12 kts 224°
2026-04-26 04:36 43.11078 141.38354 30 ft 11 kts 222°
2026-04-26 04:36 43.11070 141.38343 29 ft 0 kts 223°